User: anonymous   Login
Location: Unspecified
(0.0000°N, 0.0000°E)
Time: 15:15:58
(UTC+00:00)
Language:

USA 200 - Orbit

View from above orbital plane
View from above orbital plane
View from above satellite
View from above satellite

Ground track
Ground track

The orbit data is extracted from the following two-line orbital elements,

1 32706U 08010A   15107.76455456 -.00000327  00000-0  00000-0 0    09
2 32706  63.0913  90.9567 7007343 268.1618  17.5536  2.00625518    00
Epoch (UTC): 17 April 2015 18:20:57
Eccentricity: 0.7007343
inclination: 63.0913°
perigee height: 1569 km
apogee height: 38784 km
right ascension of ascending node: 90.9567°
argument of perigee: 268.1618°
revolutions per day: 2.00625518
mean anomaly at epoch: 17.5536°
orbit number at epoch: 0

The dashed part of the orbit path shows where the satellite is in the earth's shadow,  

DLR